GSAT-29

Last updated on Sat Oct 18 2025 00:02:55 GMT+0000 (Coordinated Universal Time)

1 43698U 18089A 25290.56570310 .00000075 00000+0 00000+0 0 9991 2 43698 0.0179 131.1546 0002911 86.9754 66.9006 1.00273805 25361
UTC large
Height (km)
Speed (km/s)
/
Latitude / Longitude
Inclination (degrees)
Orbital Period (minutes)
Azimuth
Elevation
Range (km)
Doppler Factor

Next 0 passes for location: London (51.5072 / 0.1276)

Sorry there are no passes over London.